This demonstration page uses our WeatherBlox Daily Observations layout. Learn more.

Left ArrowRight Arrow

Hourly Observations for April 23, 2022

Temp ( °F °C ) Dew Point ( °F °C ) Humidity (%) Winds ( mph kmh ) Pressure ( in mb ) Visibility ( mi km ) Precip ( " mm )
12:56 am 00:56 Mostly Cloudy 73 22.8 59 14.9 61 61 S 26 43 29.65 1004 10 16 0.00 0.00
1:56 am 01:56 Mostly Cloudy 72 22.4 58 14.5 61 61 S 29 46 29.62 1003 10 16 0.00 0.00
2:56 am 02:56 Partly Cloudy 71 21.6 58 14.2 63 63 S 25 41 29.59 1002 10 16 0.00 0.00
3:56 am 03:56 Mostly Cloudy 71 21.7 57 14.1 62 62 S 23 37 29.57 1001 10 16 0.00 0.00
4:56 am 04:56 Mostly Cloudy 71 21.7 57 14.1 62 62 S 26 43 29.56 1001 10 16 0.00 0.00
5:56 am 05:56 Mostly Cloudy 68 20.1 59 15.1 73 73 S 21 33 29.55 1001 10 16 0.04 1.02
6:56 am 06:56 Cloudy 69 20.6 59 15.1 71 71 S 21 33 29.53 1000 10 16 0.00 0.00
7:56 am 07:56 Mostly Cloudy 70 20.9 59 15 69 69 S 25 41 29.50 999 10 16 0.00 0.00
8:56 am 08:56 Mostly Cloudy 69 20.8 59 15.1 70 70 S 22 35 29.49 999 10 16 0.00 0.00
9:56 am 09:56 Partly Cloudy 70 21.2 59 14.8 67 67 S 24 39 29.48 998 9 14 0.00 0.00
10:56 am 10:56 Partly Cloudy 72 22 59 15.1 65 65 S 35 56 29.48 998 7 11 0.00 0.00
11:56 am 11:56 Mostly Sunny 73 22.7 58 14.3 59 59 S 35 56 29.50 999 10 16 0.00 0.00
12:56 pm 12:56 Partly Cloudy 76 24.3 52 10.9 43 43 SSW 28 44 29.50 999 9 14 0.00 0.00
1:56 pm 13:56 Mostly Cloudy 76 24.2 55 12.5 48 48 S 32 52 29.48 998 10 16 0.00 0.00
2:56 pm 14:56 Mostly Cloudy 77 24.8 56 13.3 49 49 S 28 44 29.48 998 9 14 0.00 0.00
3:56 pm 15:56 Partly Cloudy 76 24.4 55 12.7 48 48 S 24 39 29.45 997 10 16 0.00 0.00
4:56 pm 16:56 Mostly Cloudy 74 23.3 56 13.2 53 53 S 18 30 29.44 997 10 16 0.00 0.00
5:24 pm 17:24 Partly Cloudy 75 24 54 12 47 47 SW 25 41 29.43 997 10 16 0.00 0.00
5:56 pm 17:56 Mostly Sunny 80 26.5 31 -0.6 17 17 WSW 29 46 29.44 997 10 16 0.00 0.00
6:56 pm 18:56 Sunny 74 23.2 37 2.6 26 26 W 31 50 29.49 999 10 16 0.00 0.00
7:56 pm 19:56 Sunny 67 19.4 30 -1.1 25 25 W 21 33 29.54 1001 10 16 0.00 0.00
8:56 pm 20:56 Clear 63 17.1 28 -2.1 27 27 W 23 37 29.61 1003 10 16 0.00 0.00
9:56 pm 21:56 Clear 58 14.4 26 -3.4 29 29 W 16 26 29.66 1004 10 16 0.00 0.00
10:56 pm 22:56 Clear 53 11.4 27 -2.8 37 37 W 15 24 29.72 1006 10 16 0.00 0.00
11:56 pm 23:56 Clear 50 10.1 29 -1.9 43 43 WSW 6 9 29.72 1007 10 16 0.00 0.00

Powered by AerisWeather